Location: Newark
(47.4000°N, 7.5833°E)
Time: 06:11:09
(UTC+00:00)

N. Korean satellite - Pass Details

Date: 29 January 2020
Orbit: 456 x 505 km, 97.2° (Epoch: 27 February)

Event Time Altitude Azimuth Distance (km) Brightness Sun altitude
Rises 05:33:22 0° 10° (N) 2,551 10.2 -14.7°
Reaches altitude 10° 05:35:25 10° 8° (N) 1,675 9.3 -14.4°
Maximum altitude 05:39:01 71° 285° (WNW) 523 6.5 -13.8°
Drops below altitude 10° 05:42:38 10° 201° (SSW) 1,687 9.2 -13.2°
Sets 05:44:43 0° 199° (SSW) 2,572 10.2 -12.9°
